Weather History for Big Piney, WY

Change the Weather History Date:

Thursday, December 12, 2013

  Actual Average Record
Temperature  
Mean Temperature 9 °F 13 °F  
Max Temperature 26 °F 26 °F 46 °F (2004)
Min Temperature -9 °F 1 °F -21 °F (2007)
Degree Days  
Heating Degree Days 56 52  
Month to date heating degree days 717 609  
Since 1 July heating degree days 3182 3424  
Cooling Degree Days 0 0  
Month to date cooling degree days 0 0  
Year to date cooling degree days 89 35  
Moisture  
Dew Point -3 °F    
Average Humidity 69    
Maximum Humidity 87    
Minimum Humidity 50    
Precipitation  
Precipitation 0.00 in 0.01 in 0.13 in (1996)
Month to date precipitation T 0.11  
Year to date precipitation 4.51 6.29  
Sea Level Pressure  
Sea Level Pressure 30.54 in    
Wind  
Wind Speed 3 mph (ENE)    
Max Wind Speed 8 mph    
Max Gust Speed 8 mph    
Visibility 10 miles    
Events      
T = Trace of Precipitation, MM = Missing Value Source: NWS Daily Summary

Daily Weather History Graph

Daily Weather History Graph

Search for Another Location

Airport:

Trip Planner

Search our weather history database for the weather conditions in past years. The results will help you decide how hot, cold, wet, or windy it might be!

Date:

Astronomy

Dec. 12, 2013 Rise Set
Actual Time 7:41 AM MST 4:47 PM MST
Civil Twilight 7:09 AM MST 5:19 PM MST
Nautical Twilight 6:33 AM MST 5:54 PM MST
Astronomical Twilight 5:59 AM MST 6:29 PM MST
Moon 2:00 PM MST (12/12) 3:02 AM MST (12/12)
Length of Visible Light 10h 10m
Length of Day
9h 05m
Waxing Gibbous, 81% of the Moon is Illuminated
Dec 12
Waxing Gibbous
Dec 17
Full
Dec 25
Last Quarter
Jan 1
New
Jan 7
First Quarter

Hourly Weather History & Observations

Time (MST) Temp. Windchill Dew Point Humidity Pressure Visibility Wind Dir Wind Speed Gust Speed Precip Events Conditions
12:53 AM -6.0 °F -14.7 °F -9.9 °F 83% 30.65 in 10.0 mi ENE 3.5 mph - N/A   Clear
1:53 AM -4.0 °F -19.0 °F -8.0 °F 83% 30.64 in 10.0 mi ENE 8.1 mph - N/A   Clear
2:53 AM -5.1 °F -19.1 °F -9.0 °F 83% 30.64 in 10.0 mi ENE 6.9 mph - N/A   Clear
3:53 AM -5.1 °F -15.8 °F -11.0 °F 76% 30.63 in 10.0 mi North 4.6 mph - N/A   Clear
4:53 AM -5.1 °F - -9.0 °F 83% 30.66 in 10.0 mi Calm Calm - N/A   Clear
5:53 AM -8.0 °F - -11.9 °F 83% 30.70 in 10.0 mi Calm Calm - N/A   Clear
6:53 AM -6.0 °F -18.6 °F -9.9 °F 83% 30.69 in 10.0 mi NE 5.8 mph - N/A   Clear
7:53 AM -7.1 °F - -13.0 °F 75% 30.71 in 10.0 mi Calm Calm - N/A   Clear
8:53 AM 1.0 °F -8.7 °F -2.9 °F 83% 30.68 in 10.0 mi ENE 4.6 mph - N/A   Clear
9:53 AM 6.1 °F -2.8 °F -0.9 °F 73% 30.67 in 10.0 mi ESE 4.6 mph - N/A   Clear
10:53 AM 12.0 °F - 3.0 °F 67% 30.63 in 10.0 mi Calm Calm - N/A   Clear
11:53 AM 16.0 °F 8.8 °F 5.0 °F 62% 30.55 in 10.0 mi West 4.6 mph - N/A   Clear
12:53 PM 19.9 °F - 6.1 °F 55% 30.52 in 10.0 mi Calm Calm - N/A   Clear
1:53 PM 23.0 °F - 8.1 °F 53% 30.45 in 10.0 mi Calm Calm - N/A   Clear
2:53 PM 25.0 °F - 9.0 °F 51% 30.42 in 10.0 mi Calm Calm - N/A   Clear
3:53 PM 26.1 °F - 10.0 °F 51% 30.39 in 10.0 mi Calm Calm - N/A   Clear
4:53 PM 19.0 °F 13.9 °F 9.0 °F 65% 30.41 in 10.0 mi East 3.5 mph - N/A   Clear
5:53 PM 9.0 °F 2.4 °F 3.0 °F 77% 30.47 in 10.0 mi East 3.5 mph - N/A   Clear
6:53 PM 3.9 °F -6.9 °F -0.9 °F 80% 30.48 in 10.0 mi ENE 5.8 mph - N/A   Clear
7:53 PM -0.0 °F -9.9 °F -4.0 °F 83% 30.48 in 10.0 mi East 4.6 mph - N/A   Clear
8:53 PM -0.9 °F -8.9 °F -5.1 °F 83% 30.43 in 10.0 mi East 3.5 mph - N/A   Clear
9:53 PM 1.0 °F - -4.0 °F 79% 30.37 in 10.0 mi Calm Calm - N/A   Clear
10:53 PM -2.0 °F - -5.1 °F 87% 30.35 in 10.0 mi Calm Calm - N/A   Clear
11:53 PM -6.0 °F -14.7 °F -9.9 °F 83% 30.35 in 10.0 mi East 3.5 mph - N/A   Clear